Location: Ottawa
(45.4167°N, 75.7000°W)
Time: 11:52:36
(UTC-05:00)

Vanguard 1 Rocket - Visible Passes

Search period start: 18 December 2017 00:00
Search period end: 28 December 2017 00:00
Orbit: 656 x 4222 km, 34.3° (Epoch: 17 December)

Date Brightness Start Highest point End Pass type
(mag) Time Alt. Az. Time Alt. Az. Time Alt. Az.
18 Dec 10.0 18:47:02 10° WSW 18:57:59 53° S 19:11:00 24° ESE visible
18 Dec 10.6 21:12:30 10° W 21:26:39 39° SSW 21:28:19 39° SSW visible
18 Dec 11.5 23:43:27 10° WSW 23:45:39 13° WSW 23:45:39 13° WSW visible
19 Dec 9.7 17:36:42 10° WSW 17:45:46 51° S 18:03:05 10° ESE visible
19 Dec 10.3 20:01:07 10° W 20:13:32 45° SSW 20:21:36 34° SSE visible
19 Dec 11.1 22:28:43 10° W 22:38:56 25° SW 22:38:56 25° SW visible
20 Dec 10.0 18:50:18 10° WSW 19:00:51 49° S 19:15:01 19° SE visible
20 Dec 10.8 21:16:05 10° W 21:29:16 33° SSW 21:32:23 32° SSW visible
21 Dec 9.7 17:39:55 10° WSW 17:48:42 49° S 18:05:22 10° ESE visible
21 Dec 10.4 20:04:32 10° W 20:16:19 40° SSW 20:26:01 27° SSE visible
21 Dec 11.3 22:33:17 10° WSW 22:43:23 20° SW 22:43:23 20° SW visible
22 Dec 10.1 18:53:39 10° W 19:03:44 44° SSW 19:19:51 14° SE visible
22 Dec 11.0 21:19:57 10° W 21:31:56 27° SSW 21:37:15 25° S visible
23 Dec 9.8 17:43:12 10° WSW 17:51:40 46° S 18:07:32 10° ESE visible
23 Dec 10.6 20:08:06 10° W 20:19:08 34° SSW 20:31:26 19° SSE visible
23 Dec 11.5 22:39:10 10° WSW 22:47:27 14° SW 22:48:53 14° SW visible
24 Dec 10.2 18:57:05 10° W 19:06:41 39° SSW 19:23:34 10° SE visible
24 Dec 11.2 21:24:19 10° WSW 21:34:40 21° SSW 21:43:36 16° S visible
25 Dec 9.9 17:46:35 10° WSW 17:54:41 42° S 18:09:34 10° SE visible
25 Dec 10.8 20:11:56 10° WSW 20:22:00 27° SSW 20:37:36 10° SSE visible
26 Dec 9.6 16:36:25 10° WSW 16:43:11 42° S 16:55:29 10° ESE visible
26 Dec 10.4 19:00:40 10° WSW 19:09:40 33° SSW 19:24:51 10° SE visible
26 Dec 11.4 21:29:40 10° WSW 21:37:27 15° SW 21:47:18 10° S visible
27 Dec 10.0 17:50:01 10° WSW 17:57:45 36° S 18:11:24 10° SE visible
27 Dec 11.0 20:16:10 10° WSW 20:24:55 21° SSW 20:37:35 10° SSE visible
